Regional Weather Roundup
Issued by NWS Charleston, SC

Current Version | Previous Version | Text Only | Print | Product List | Glossary Off
Versions: 1 2 3 4 5 6 7 8 9 10 11 12 13 14 15 16 17 18 19 20 21 22 23 24 25 26 27 28 29 30 31 32 33 34 35 36 37 38 39 40 41 42 43 44 45 46 47 48 49 50
035 ASUS42 KCHS 171712 RWRCHS Regional Weather Roundup National Weather Service Charleston SC 1200 PM EST SUN DEC 17 2017 NOTE: "fair" indicates few or no clouds below 12,000 feet with no significant weather and/or obstructions to visibility. Not all stations are quality controlled. Use data with caution, especially dewpoint observations. SCZ027-030-031-034>040-042>050-171800- ...Southeast South Carolina... CITY SKY/WX TMP DP RH WIND PRES REMARKS N Charleston MOSUNNY 58 35 42 VRB3 30.28F Waterfront Prk N/A 54 43 66 CALM 30.16F Mount Pleasant FAIR 57 37 47 CALM 30.28F Johns Island FAIR 59 39 47 CALM 30.28F Pinopolis N/A 48 43 81 VRB2 30.23F Moncks Corner FAIR 55 32 41 CALM 30.28F Summerville FAIR 55 36 47 CALM 30.29F Beaufort MCAS SUNNY 58 44 60 S3 30.28F Beaufort Arpt FAIR 59 37 44 SE3 30.27F Hilton Head Is SUNNY 57 43 58 NE3 30.29F Walterboro MOSUNNY 55 36 47 CALM 30.28F Allendale FAIR 55 36 47 CALM 30.27F ...Southern Midlands and Pee Dee... CITY SKY/WX TMP DP RH WIND PRES REMARKS Georgetown FAIR 55 37 50 CALM 30.30F Kingstree FAIR 54 32 43 S6 30.29F Orangeburg SUNNY 56 30 37 CALM 30.27F Barnwell N/A 57 36 44 CALM 30.27F Aiken FAIR 54 30 40 SE5 30.29F Manning FAIR 54 30 40 MISG 30.28F Columbia PTSUNNY 52 35 52 CALM 30.28F Sumter SUNNY 54 30 40 CALM 30.26F Florence SUNNY 53 31 42 SW6 30.29F Myrtle Beach MOSUNNY 54 37 52 S5 30.30F N Myrtle Beach MOSUNNY 54 32 43 SE5 30.28F $$ GAZ063-065-086>088-099>101-113>116-118-119-134>141-150-171800- ...Southeast Georgia... CITY SKY/WX TMP DP RH WIND PRES REMARKS Savannah Arpt PTSUNNY 62 37 39 SE6 30.27F Hunter AAF SUNNY 61 42 50 SE7 30.25F Fort Stewart SUNNY 62 37 39 SE7 N/A Statesboro SUNNY 61 29 30 S3 30.27F Sylvania SUNNY 58 38 47 SE3 30.29F Claxton FAIR 62 37 38 E5 30.27F ...CSRA, Central and far Southeast Georgia... CITY SKY/WX TMP DP RH WIND PRES REMARKS Thomson MOSUNNY 55 32 40 W3 30.32R Augusta-Bush SUNNY 56 34 43 SE3 30.26F Augusta-Daniel SUNNY 54 33 45 SE5 30.27F Swainsboro FAIR 61 34 36 N10 30.25F Vidalia CLOUDY 63 36 36 CALM 30.27F Eastman FAIR 66 22 18 S12 30.25F Hazlehurst FAIR 64 27 24 S6 30.25F Alma SUNNY 64 42 44 SE5 30.25F Waycross SUNNY 65 43 44 S5 30.25F Jesup NOT AVBL Baxley FAIR 61 37 41 S7 30.26F Brunswick MOSUNNY 63 43 48 SE5 30.29F Saint Simons MOSUNNY 62 46 55 NE7 30.28F $$ SCZ027-028-034-036>038-045-046-048>050-GAZ119-141-171800- ...Lake and Supplemental Coastal Observations... STATION/POSITION TIME TEMP WIND PRES WAVE SWELL AIR SEA DIR/SP/G HT/PER HT/PER/DIR (UTC) (F) (DEG/KT/KT) (MB) (FT/S) (FT/S/D) Winyah Bay NOT AVBL Lake Murray 1620 51 170/ 3/ 4 1025.1 ACE Basin NERRS 1545 55 CALM 1027.0 Fort Pulaski 1648 54 53 80/ 4/ 5 1025.9F Sapelo Island 1600 60 90/ 6 1026.0 $$ ANZ835-935-AMZ111-154-330-350-352-354-370-450-454-472-171800- ...C-MAN and Buoy Observations... STATION/POSITION TIME TEMP WIND PRES WAVE SWELL AIR SEA DIR/SP/G HT/PER HT/PER/DIR (UTC) (F) (DEG/KT/KT) (MB) (FT/S) (FT/S/D) Buoy 41004 1650 61 72 350/ 2/ 4 1025.3F 2/10 2/130/10 Buoy 41008 1650 60 59 60/ 4/ 6 1025.5F 1/10 2/ 90/10 Folly Beach CMAN 1600 51 50/ 3/ 3 1027.3S Capers Nearshore 1608 53 55 30/ 2/ 4 1026.6F STATION/POSITION TIME TEMP WIND PRES WAVE SWELL AIR SEA DIR/SP/G HT/PER HT/PER/DIR (UTC) (F) (DEG/KT/KT) (MB) (FT/S) (FT/S/D) 5E St. Marys GA 1630 62 N/A 2/10 Frying Pan Buoy 1650 58 69 60/ 4/ 6 1025.2F 1/ 9 2/100/ 9 Buoy 41025 1650 55 72 220/ 6/ 10 1025.4F 2/10 2/130/10 Cape Lookout NC 1600 150/ 3/ 4 1026.5F Buoy 41002 1550 65 74 CALM / 2 1027.0 3/ 9 3/ 50/ 9 Buoy 41010 NOT AVBL St Augustine FL 1700 64 63 360/ 3/ 4 1025.0F $$

USA.gov is the U.S. government's official web portal to all federal, state and local government web resources and services.